| time (UTC) | temp F | wind direction | speed knots | gust knots | rain 1hr in | rain 24hr in | rain mn in | humidity % | barometer mb |
| 20260502150221 | 54 | 163 | 5.2 | 7.8 | 0.00 | 0.00 | 0.00 | 45 | 1020.0 |
| 20260502130720 | 50 | 169 | 4.3 | 5.2 | 0.00 | 0.00 | 0.00 | 51 | 1020.0 |
| 20260502130221 | 49 | 189 | 6.1 | 7.8 | 0.00 | 0.00 | 0.00 | 52 | 1020.0 |
| 20260502123720 | 49 | 174 | 4.3 | 6.1 | 0.00 | 0.00 | 0.00 | 57 | 1020.0 |
| 20260502123221 | 49 | 170 | 6.1 | 7.8 | 0.00 | 0.00 | 0.00 | 57 | 1020.0 |
| 20260502122720 | 49 | 164 | 5.2 | 7.8 | 0.00 | 0.00 | 0.00 | 57 | 1020.0 |
| 20260502122220 | 49 | 157 | 5.2 | 6.1 | 0.00 | 0.00 | 0.00 | 57 | 1020.0 |
| 20260502121721 | 49 | 173 | 5.2 | 5.2 | 0.00 | 0.00 | 0.00 | 57 | 1020.0 |
| 20260502121220 | 49 | 172 | 5.2 | 7.0 | 0.00 | 0.00 | 0.00 | 58 | 1020.0 |
| 20260502120720 | 50 | 166 | 7.0 | 7.8 | 0.00 | 0.00 | 0.00 | 58 | 1020.0 |
| 20260502120220 | 50 | 164 | 4.3 | 6.1 | 0.00 | 0.00 | 0.00 | 58 | 1020.0 |
| 20260502115720 | 50 | 160 | 5.2 | 7.0 | 0.00 | 0.00 | 0.00 | 59 | 1020.0 |
| 20260502115221 | 50 | 160 | 5.2 | 7.0 | 0.00 | 0.00 | 0.00 | 59 | 1020.0 |
| 20260502114721 | 50 | 160 | 6.1 | 7.8 | 0.00 | 0.00 | 0.00 | 59 | 1020.0 |
| 20260502114221 | 50 | 165 | 6.1 | 7.8 | 0.00 | 0.00 | 0.00 | 59 | 1020.0 |
| 20260502113720 | 50 | 165 | 5.2 | 7.0 | 0.00 | 0.00 | 0.00 | 59 | 1020.0 |
| 20260502113221 | 50 | 157 | 5.2 | 6.1 | 0.00 | 0.00 | 0.00 | 58 | 1020.0 |
| 20260502112723 | 50 | 158 | 5.2 | 7.0 | 0.00 | 0.00 | 0.00 | 59 | 1020.0 |
| 20260502112220 | 51 | 163 | 6.1 | 7.8 | 0.00 | 0.00 | 0.00 | 59 | 1020.0 |
| 20260502111720 | 50 | 165 | 6.1 | 7.8 | 0.00 | 0.00 | 0.00 | 59 | 1020.0 |
| 20260502111220 | 50 | 165 | 5.2 | 7.8 | 0.00 | 0.00 | 0.00 | 62 | 1020.0 |
| 20260502110720 | 50 | 157 | 4.3 | 6.1 | 0.00 | 0.00 | 0.00 | 62 | 1020.0 |
| 20260502110223 | 50 | 158 | 5.2 | 7.0 | 0.00 | 0.00 | 0.00 | 62 | 1020.0 |
| 20260502105721 | 50 | 167 | 5.2 | 7.0 | 0.00 | 0.00 | 0.00 | 62 | 1020.0 |
| 20260502105221 | 51 | 183 | 5.2 | 6.1 | 0.00 | 0.00 | 0.00 | 59 | 1020.0 |
| 20260502104720 | 51 | 185 | 3.5 | 5.2 | 0.00 | 0.00 | 0.00 | 56 | 1020.0 |
| 20260502104220 | 51 | 171 | 4.3 | 6.1 | 0.00 | 0.00 | 0.00 | 54 | 1020.0 |
| 20260502103720 | 51 | 175 | 4.3 | 6.1 | 0.00 | 0.00 | 0.00 | 51 | 1020.0 |
| 20260502103222 | 51 | 162 | 5.2 | 7.0 | 0.00 | 0.00 | 0.00 | 51 | 1020.0 |
| 20260502102720 | 51 | 163 | 3.5 | 4.3 | 0.00 | 0.00 | 0.00 | 53 | 1020.0 |
| 20260502102221 | 52 | 174 | 3.5 | 7.8 | 0.00 | 0.00 | 0.00 | 52 | 1020.0 |
| 20260502101720 | 52 | 180 | 5.2 | 7.0 | 0.00 | 0.00 | 0.00 | 50 | 1020.0 |
| 20260502101220 | 52 | 178 | 5.2 | 7.0 | 0.00 | 0.00 | 0.00 | 52 | 1020.0 |
| 20260502100720 | 52 | 183 | 5.2 | 7.8 | 0.00 | 0.00 | 0.00 | 51 | 1020.0 |
| 20260502100221 | 52 | 185 | 5.2 | 7.8 | 0.00 | 0.00 | 0.00 | 50 | 1020.0 |
| 20260502091220 | 49 | 158 | 2.6 | 3.5 | 0.00 | 0.00 | 0.00 | 47 | 1020.0 |
| 20260502090720 | 49 | 200 | 2.6 | 2.6 | 0.00 | 0.00 | 0.00 | 46 | 1020.0 |
| 20260502090220 | 49 | 190 | 2.6 | 2.6 | 0.00 | 0.00 | 0.00 | 45 | 1020.0 |
| 20260502071220 | 48 | 257 | 3.5 | 4.3 | 0.00 | 0.00 | 0.00 | 50 | 1020.0 |
| 20260502070720 | 48 | 257 | 2.6 | 2.6 | 0.00 | 0.00 | 0.00 | 50 | 1020.0 |
| 20260502070221 | 48 | 136 | 0.9 | 1.7 | 0.00 | 0.00 | 0.00 | 50 | 1021.0 |
| 20260502065247 | 48 | 248 | 2.6 | 3.5 | 0.00 | 0.00 | 0.00 | 49 | 1020.0 |
| 20260502064720 | 48 | 256 | 3.5 | 4.3 | 0.00 | 0.00 | 0.00 | 48 | 1020.0 |
| 20260502064221 | 49 | 251 | 4.3 | 5.2 | 0.00 | 0.00 | 0.00 | 48 | 1020.0 |
| 20260502063720 | 49 | 255 | 3.5 | 3.5 | 0.00 | 0.00 | 0.00 | 47 | 1020.0 |
| 20260502063220 | 49 | 262 | 3.5 | 4.3 | 0.00 | 0.00 | 0.00 | 46 | 1020.0 |
| 20260502062720 | 50 | 250 | 2.6 | 3.5 | 0.00 | 0.00 | 0.00 | 46 | 1020.0 |
| 20260502062221 | 50 | 252 | 3.5 | 4.3 | 0.00 | 0.00 | 0.00 | 45 | 1020.0 |
| 20260502061720 | 50 | 248 | 4.3 | 6.1 | 0.00 | 0.00 | 0.00 | 45 | 1020.0 |
| 20260502061220 | 50 | 248 | 3.5 | 4.3 | 0.00 | 0.00 | 0.00 | 46 | 1020.0 |
| 20260502060721 | 50 | 245 | 3.5 | 3.5 | 0.00 | 0.00 | 0.00 | 45 | 1020.0 |
| 20260502060220 | 51 | 258 | 1.7 | 2.6 | 0.00 | 0.00 | 0.00 | 45 | 1020.0 |
| 20260502055720 | 52 | 266 | 0.9 | 1.7 | 0.00 | 0.00 | 0.00 | 44 | 1020.0 |
| 20260502055221 | 52 | 268 | 3.5 | 3.5 | 0.00 | 0.00 | 0.00 | 41 | 1020.0 |
| 20260502054720 | 51 | 266 | 3.5 | 3.5 | 0.00 | 0.00 | 0.00 | 43 | 1020.0 |
| 20260502054220 | 51 | 267 | 2.6 | 3.5 | 0.00 | 0.00 | 0.00 | 44 | 1020.0 |
| 20260502053720 | 52 | 269 | 3.5 | 4.3 | 0.00 | 0.00 | 0.00 | 42 | 1020.0 |
| 20260502053220 | 52 | 264 | 3.5 | 4.3 | 0.00 | 0.00 | 0.00 | 42 | 1020.0 |
| 20260502052720 | 52 | 261 | 2.6 | 3.5 | 0.00 | 0.00 | 0.00 | 42 | 1020.0 |
| 20260502052222 | 52 | 264 | 2.6 | 3.5 | 0.00 | 0.00 | 0.00 | 42 | 1020.0 |
| 20260502051720 | 52 | 259 | 3.5 | 3.5 | 0.00 | 0.00 | 0.00 | 41 | 1020.0 |
| 20260502051220 | 53 | 269 | 1.7 | 2.6 | 0.00 | 0.00 | 0.00 | 41 | 1020.0 |
| 20260502050720 | 53 | 277 | 2.6 | 3.5 | 0.00 | 0.00 | 0.00 | 40 | 1020.0 |
| 20260502050221 | 53 | 270 | 2.6 | 3.5 | 0.00 | 0.00 | 0.00 | 39 | 1020.0 |
| 20260502045720 | 53 | 261 | 3.5 | 4.3 | 0.00 | 0.00 | 0.00 | 40 | 1020.0 |
| 20260502045220 | 53 | 256 | 2.6 | 3.5 | 0.00 | 0.00 | 0.00 | 40 | 1020.0 |
| 20260502044720 | 53 | 256 | 2.6 | 3.5 | 0.00 | 0.00 | 0.00 | 40 | 1020.0 |
| 20260502044220 | 53 | 255 | 3.5 | 3.5 | 0.00 | 0.00 | 0.00 | 40 | 1020.0 |
| 20260502043720 | 53 | 262 | 3.5 | 3.5 | 0.00 | 0.00 | 0.00 | 40 | 1020.0 |
| 20260502043221 | 53 | 278 | 1.7 | 2.6 | 0.00 | 0.00 | 0.00 | 40 | 1020.0 |
| 20260502042720 | 54 | 267 | 2.6 | 3.5 | 0.00 | 0.00 | 0.00 | 39 | 1020.0 |
| 20260502042220 | 54 | 269 | 2.6 | 2.6 | 0.00 | 0.00 | 0.00 | 38 | 1020.0 |
| 20260502041720 | 55 | 257 | 2.6 | 2.6 | 0.00 | 0.00 | 0.00 | 37 | 1020.0 |
| 20260502041226 | 55 | 268 | 1.7 | 2.6 | 0.00 | 0.00 | 0.00 | 36 | 1020.0 |
| 20260502040720 | 55 | 269 | 2.6 | 3.5 | 0.00 | 0.00 | 0.00 | 36 | 1020.0 |
| 20260502040220 | 55 | 267 | 1.7 | 1.7 | 0.00 | 0.00 | 0.00 | 36 | 1020.0 |
| 20260502035721 | 55 | 0 | 0.0 | 0.0 | 0.00 | 0.00 | 0.00 | 35 | 1020.0 |
| 20260502035221 | 56 | 0 | 0.0 | 0.0 | 0.00 | 0.00 | 0.00 | 34 | 1020.0 |
| 20260502034720 | 55 | 123 | 1.7 | 1.7 | 0.00 | 0.00 | 0.00 | 35 | 1020.0 |
| 20260502034222 | 55 | 340 | 0.0 | 1.7 | 0.00 | 0.00 | 0.00 | 36 | 1020.0 |
| 20260502033720 | 56 | 307 | 1.7 | 3.5 | 0.00 | 0.00 | 0.00 | 36 | 1020.0 |
| 20260502033220 | 57 | 265 | 1.7 | 3.5 | 0.00 | 0.00 | 0.00 | 34 | 1019.0 |
| 20260502032720 | 57 | 299 | 1.7 | 1.7 | 0.00 | 0.00 | 0.00 | 32 | 1019.0 |
| 20260502032221 | 58 | 295 | 1.7 | 2.6 | 0.00 | 0.00 | 0.00 | 32 | 1019.0 |
| 20260502031721 | 58 | 294 | 1.7 | 3.5 | 0.00 | 0.00 | 0.00 | 31 | 1019.0 |
| 20260502031220 | 58 | 277 | 1.7 | 3.5 | 0.00 | 0.00 | 0.00 | 31 | 1019.0 |
| 20260502030721 | 58 | 302 | 1.7 | 2.6 | 0.00 | 0.00 | 0.00 | 30 | 1019.0 |
| 20260502030220 | 58 | 316 | 0.9 | 1.7 | 0.00 | 0.00 | 0.00 | 30 | 1019.0 |
| 20260502025721 | 59 | 323 | 0.9 | 1.7 | 0.00 | 0.00 | 0.00 | 30 | 1019.0 |
| 20260502025220 | 59 | 310 | 1.7 | 2.6 | 0.00 | 0.00 | 0.00 | 29 | 1019.0 |
| 20260502024720 | 59 | 313 | 1.7 | 2.6 | 0.00 | 0.00 | 0.00 | 29 | 1019.0 |
| 20260502024221 | 59 | 310 | 1.7 | 2.6 | 0.00 | 0.00 | 0.00 | 29 | 1019.0 |
| 20260502023721 | 60 | 321 | 1.7 | 2.6 | 0.00 | 0.00 | 0.00 | 29 | 1019.0 |
| 20260502023220 | 60 | 313 | 0.9 | 1.7 | 0.00 | 0.00 | 0.00 | 28 | 1019.0 |
| 20260502022721 | 60 | 319 | 1.7 | 3.5 | 0.00 | 0.00 | 0.00 | 28 | 1019.0 |
| 20260502022220 | 61 | 328 | 1.7 | 3.5 | 0.00 | 0.00 | 0.00 | 27 | 1019.0 |
| 20260502021720 | 61 | 324 | 1.7 | 5.2 | 0.00 | 0.00 | 0.00 | 27 | 1019.0 |
| 20260502021220 | 61 | 333 | 3.5 | 6.1 | 0.00 | 0.00 | 0.00 | 26 | 1018.0 |
| 20260502020720 | 62 | 329 | 2.6 | 4.3 | 0.00 | 0.00 | 0.00 | 27 | 1018.0 |
| 20260502020230 | 62 | 336 | 4.3 | 7.0 | 0.00 | 0.00 | 0.00 | 26 | 1018.0 |
| 20260502015721 | 62 | 344 | 4.3 | 7.8 | 0.00 | 0.00 | 0.00 | 26 | 1018.0 |
| 20260502015220 | 63 | 341 | 6.1 | 9.6 | 0.00 | 0.00 | 0.00 | 26 | 1018.0 |
| 20260502014720 | 63 | 329 | 5.2 | 7.0 | 0.00 | 0.00 | 0.00 | 26 | 1018.0 |
| 20260502014220 | 63 | 337 | 5.2 | 10.4 | 0.00 | 0.00 | 0.00 | 26 | 1018.0 |
| 20260502013720 | 63 | 339 | 3.5 | 6.1 | 0.00 | 0.00 | 0.00 | 26 | 1018.0 |
| 20260502013221 | 63 | 352 | 6.1 | 9.6 | 0.00 | 0.00 | 0.00 | 26 | 1018.0 |
| 20260502012720 | 63 | 7 | 7.0 | 10.4 | 0.00 | 0.00 | 0.00 | 26 | 1018.0 |
| 20260502012221 | 64 | 354 | 5.2 | 9.6 | 0.00 | 0.00 | 0.00 | 26 | 1018.0 |
| 20260502011720 | 64 | 345 | 7.0 | 10.4 | 0.00 | 0.00 | 0.00 | 26 | 1018.0 |
| 20260502011220 | 64 | 13 | 5.2 | 9.6 | 0.00 | 0.00 | 0.00 | 26 | 1018.0 |
| 20260502010720 | 64 | 354 | 5.2 | 8.7 | 0.00 | 0.00 | 0.00 | 26 | 1018.0 |
| 20260502010222 | 64 | 8 | 7.0 | 9.6 | 0.00 | 0.00 | 0.00 | 26 | 1018.0 |
| 20260502005720 | 64 | 3 | 7.8 | 11.3 | 0.00 | 0.00 | 0.00 | 25 | 1018.0 |
| 20260502005221 | 64 | 326 | 3.5 | 5.2 | 0.00 | 0.00 | 0.00 | 25 | 1018.0 |
| 20260502004720 | 64 | 5 | 7.0 | 8.7 | 0.00 | 0.00 | 0.00 | 25 | 1018.0 |
| 20260502004220 | 65 | 0 | 7.8 | 10.4 | 0.00 | 0.00 | 0.00 | 25 | 1018.0 |
| 20260502003720 | 65 | 356 | 5.2 | 8.7 | 0.00 | 0.00 | 0.00 | 25 | 1018.0 |
| 20260502003221 | 65 | 351 | 4.3 | 7.8 | 0.00 | 0.00 | 0.00 | 25 | 1018.0 |
| 20260502002723 | 65 | 352 | 6.1 | 10.4 | 0.00 | 0.00 | 0.00 | 24 | 1018.0 |
| 20260502002220 | 65 | 344 | 4.3 | 9.6 | 0.00 | 0.00 | 0.00 | 25 | 1018.0 |
| 20260502001720 | 65 | 341 | 5.2 | 7.8 | 0.00 | 0.00 | 0.00 | 24 | 1018.0 |
| 20260502001220 | 65 | 347 | 5.2 | 7.8 | 0.00 | 0.00 | 0.00 | 24 | 1018.0 |
| 20260502000720 | 65 | 339 | 2.6 | 7.8 | 0.00 | 0.00 | 0.00 | 25 | 1018.0 |
| 20260502000221 | 65 | 3 | 5.2 | 7.0 | 0.00 | 0.00 | 0.00 | 25 | 1018.0 |
| 20260501235722 | 65 | 330 | 5.2 | 8.7 | 0.00 | 0.00 | 0.00 | 24 | 1018.0 |
| 20260501235220 | 65 | 24 | 5.2 | 9.6 | 0.00 | 0.00 | 0.00 | 25 | 1018.0 |
| 20260501234720 | 65 | 1 | 10.4 | 13.9 | 0.00 | 0.00 | 0.00 | 24 | 1018.0 |
| 20260501234220 | 65 | 331 | 1.7 | 1.7 | 0.00 | 0.00 | 0.00 | 24 | 1018.0 |
| 20260501233721 | 65 | 356 | 7.0 | 10.4 | 0.00 | 0.00 | 0.00 | 24 | 1018.0 |
| 20260501233220 | 65 | 347 | 3.5 | 6.1 | 0.00 | 0.00 | 0.00 | 24 | 1018.0 |
| 20260501232721 | 65 | 350 | 7.0 | 11.3 | 0.00 | 0.00 | 0.00 | 24 | 1018.0 |
| 20260501232220 | 65 | 40 | 3.5 | 5.2 | 0.00 | 0.00 | 0.00 | 24 | 1018.0 |
| 20260501231721 | 65 | 351 | 5.2 | 8.7 | 0.00 | 0.00 | 0.00 | 24 | 1018.0 |
| 20260501231220 | 65 | 326 | 5.2 | 8.7 | 0.00 | 0.00 | 0.00 | 23 | 1018.0 |
| 20260501230720 | 65 | 5 | 3.5 | 5.2 | 0.00 | 0.00 | 0.00 | 23 | 1018.0 |
| 20260501230220 | 66 | 336 | 5.2 | 7.8 | 0.00 | 0.00 | 0.00 | 23 | 1018.0 |
| 20260501225720 | 66 | 13 | 2.6 | 7.8 | 0.00 | 0.00 | 0.00 | 23 | 1018.0 |
| 20260501225222 | 65 | 343 | 3.5 | 7.8 | 0.00 | 0.00 | 0.00 | 22 | 1018.0 |
| 20260501224720 | 65 | 334 | 1.7 | 2.6 | 0.00 | 0.00 | 0.00 | 23 | 1018.0 |
| 20260501224220 | 65 | 356 | 5.2 | 7.0 | 0.00 | 0.00 | 0.00 | 22 | 1018.0 |
| 20260501223720 | 65 | 41 | 5.2 | 7.8 | 0.00 | 0.00 | 0.00 | 23 | 1018.0 |
| 20260501223221 | 65 | 352 | 7.0 | 9.6 | 0.00 | 0.00 | 0.00 | 22 | 1018.0 |
| 20260501222721 | 65 | 36 | 7.8 | 9.6 | 0.00 | 0.00 | 0.00 | 22 | 1018.0 |
| 20260501222220 | 65 | 356 | 5.2 | 7.0 | 0.00 | 0.00 | 0.00 | 23 | 1018.0 |
| 20260501221721 | 65 | 15 | 2.6 | 5.2 | 0.00 | 0.00 | 0.00 | 24 | 1018.0 |
| 20260501221220 | 65 | 8 | 7.8 | 10.4 | 0.00 | 0.00 | 0.00 | 23 | 1018.0 |
| 20260501220720 | 66 | 349 | 7.0 | 9.6 | 0.00 | 0.00 | 0.00 | 23 | 1018.0 |
| 20260501220220 | 67 | 331 | 3.5 | 7.8 | 0.00 | 0.00 | 0.00 | 23 | 1018.0 |
| 20260501215721 | 66 | 322 | 5.2 | 7.8 | 0.00 | 0.00 | 0.00 | 22 | 1018.0 |
| 20260501215221 | 66 | 291 | 4.3 | 6.1 | 0.00 | 0.00 | 0.00 | 22 | 1018.0 |
| 20260501214720 | 66 | 249 | 4.3 | 6.1 | 0.00 | 0.00 | 0.00 | 22 | 1018.0 |
| 20260501214221 | 65 | 314 | 1.7 | 4.3 | 0.00 | 0.00 | 0.00 | 24 | 1018.0 |
| 20260501213721 | 65 | 342 | 1.7 | 3.5 | 0.00 | 0.00 | 0.00 | 24 | 1018.0 |
| 20260501213220 | 65 | 76 | 7.0 | 8.7 | 0.00 | 0.00 | 0.00 | 24 | 1018.0 |
| 20260501212720 | 65 | 71 | 3.5 | 7.0 | 0.00 | 0.00 | 0.00 | 23 | 1018.0 |
| 20260501212220 | 65 | 27 | 0.9 | 2.6 | 0.00 | 0.00 | 0.00 | 22 | 1018.0 |
| 20260501211720 | 65 | 321 | 0.9 | 2.6 | 0.00 | 0.00 | 0.00 | 23 | 1018.0 |
| 20260501211220 | 65 | 359 | 4.3 | 7.8 | 0.00 | 0.00 | 0.00 | 22 | 1018.0 |
| 20260501210722 | 65 | 56 | 4.3 | 7.8 | 0.00 | 0.00 | 0.00 | 24 | 1018.0 |
| 20260501210221 | 65 | 337 | 3.5 | 8.7 | 0.00 | 0.00 | 0.00 | 24 | 1018.0 |
| 20260501205720 | 65 | 69 | 5.2 | 8.7 | 0.00 | 0.00 | 0.00 | 23 | 1018.0 |
| 20260501205221 | 66 | 53 | 1.7 | 5.2 | 0.00 | 0.00 | 0.00 | 23 | 1018.0 |
| 20260501204720 | 66 | 348 | 2.6 | 4.3 | 0.00 | 0.00 | 0.00 | 23 | 1018.0 |
| 20260501204221 | 65 | 286 | 0.9 | 2.6 | 0.00 | 0.00 | 0.00 | 23 | 1018.0 |
| 20260501203720 | 65 | 49 | 1.7 | 3.5 | 0.00 | 0.00 | 0.00 | 24 | 1018.0 |
| 20260501203220 | 65 | 252 | 3.5 | 4.3 | 0.00 | 0.00 | 0.00 | 23 | 1018.0 |
| 20260501202721 | 64 | 310 | 0.0 | 0.9 | 0.00 | 0.00 | 0.00 | 23 | 1018.0 |
| 20260501202221 | 64 | 289 | 1.7 | 3.5 | 0.00 | 0.00 | 0.00 | 23 | 1018.0 |
| 20260501201720 | 64 | 328 | 4.3 | 7.0 | 0.00 | 0.00 | 0.00 | 23 | 1018.0 |
| 20260501201220 | 64 | 327 | 3.5 | 7.8 | 0.00 | 0.00 | 0.00 | 24 | 1018.0 |
| 20260501200720 | 63 | 349 | 4.3 | 7.8 | 0.00 | 0.00 | 0.00 | 24 | 1018.0 |
| 20260501200220 | 63 | 264 | 4.3 | 7.0 | 0.00 | 0.00 | 0.00 | 24 | 1018.0 |
| 20260501195720 | 63 | 50 | 1.7 | 4.3 | 0.00 | 0.00 | 0.00 | 23 | 1018.0 |
| 20260501195220 | 63 | 351 | 1.7 | 4.3 | 0.00 | 0.00 | 0.00 | 23 | 1018.0 |
| 20260501194720 | 63 | 236 | 6.1 | 9.6 | 0.00 | 0.00 | 0.00 | 23 | 1018.0 |
| 20260501194220 | 63 | 246 | 2.6 | 6.1 | 0.00 | 0.00 | 0.00 | 23 | 1018.0 |
| 20260501193720 | 63 | 167 | 0.9 | 2.6 | 0.00 | 0.00 | 0.00 | 23 | 1018.0 |
| 20260501193221 | 62 | 37 | 4.3 | 6.1 | 0.00 | 0.00 | 0.00 | 24 | 1019.0 |
| 20260501192720 | 63 | 47 | 3.5 | 6.1 | 0.00 | 0.00 | 0.00 | 24 | 1019.0 |
| 20260501192220 | 63 | 43 | 3.5 | 6.1 | 0.00 | 0.00 | 0.00 | 24 | 1018.0 |
| 20260501191721 | 63 | 42 | 0.9 | 3.5 | 0.00 | 0.00 | 0.00 | 24 | 1018.0 |
| 20260501191220 | 62 | 29 | 3.5 | 6.1 | 0.00 | 0.00 | 0.00 | 23 | 1018.0 |
| 20260501190720 | 62 | 86 | 4.3 | 6.1 | 0.00 | 0.00 | 0.00 | 23 | 1019.0 |
| 20260501190221 | 62 | 45 | 6.1 | 8.7 | 0.00 | 0.00 | 0.00 | 23 | 1019.0 |
| 20260501185720 | 61 | 44 | 3.5 | 5.2 | 0.00 | 0.00 | 0.00 | 24 | 1019.0 |
| 20260501185222 | 62 | 55 | 3.5 | 5.2 | 0.00 | 0.00 | 0.00 | 23 | 1019.0 |
| 20260501184720 | 62 | 331 | 2.6 | 5.2 | 0.00 | 0.00 | 0.00 | 22 | 1019.0 |
| 20260501184222 | 61 | 347 | 1.7 | 4.3 | 0.00 | 0.00 | 0.00 | 24 | 1019.0 |
| 20260501183720 | 61 | 297 | 1.7 | 3.5 | 0.00 | 0.00 | 0.00 | 24 | 1019.0 |
| 20260501183220 | 61 | 285 | 3.5 | 5.2 | 0.00 | 0.00 | 0.00 | 24 | 1019.0 |
| 20260501182720 | 61 | 9 | 6.1 | 7.8 | 0.00 | 0.00 | 0.00 | 23 | 1019.0 |
| 20260501182220 | 60 | 79 | 3.5 | 4.3 | 0.00 | 0.00 | 0.00 | 25 | 1019.0 |
| 20260501181721 | 60 | 42 | 4.3 | 6.1 | 0.00 | 0.00 | 0.00 | 25 | 1019.0 |
| 20260501181220 | 60 | 16 | 6.1 | 7.8 | 0.00 | 0.00 | 0.00 | 26 | 1019.0 |
| 20260501180720 | 60 | 354 | 1.7 | 3.5 | 0.00 | 0.00 | 0.00 | 27 | 1019.0 |
| 20260501180221 | 60 | 343 | 5.2 | 7.0 | 0.00 | 0.00 | 0.00 | 26 | 1019.0 |
| 20260501175720 | 60 | 302 | 3.5 | 6.1 | 0.00 | 0.00 | 0.00 | 27 | 1019.0 |
| 20260501175220 | 60 | 346 | 1.7 | 3.5 | 0.00 | 0.00 | 0.00 | 27 | 1019.0 |
| 20260501174721 | 60 | 2 | 4.3 | 7.0 | 0.00 | 0.00 | 0.00 | 27 | 1019.0 |
| 20260501174220 | 60 | 294 | 2.6 | 3.5 | 0.00 | 0.00 | 0.00 | 27 | 1019.0 |
| 20260501173720 | 60 | 333 | 2.6 | 4.3 | 0.00 | 0.00 | 0.00 | 28 | 1019.0 |
| 20260501173220 | 60 | 42 | 3.5 | 4.3 | 0.00 | 0.00 | 0.00 | 28 | 1019.0 |
| 20260501172721 | 59 | 27 | 1.7 | 2.6 | 0.00 | 0.00 | 0.00 | 30 | 1019.0 |
| 20260501172221 | 59 | 7 | 2.6 | 3.5 | 0.00 | 0.00 | 0.00 | 30 | 1019.0 |
| 20260501171720 | 58 | 13 | 2.6 | 4.3 | 0.00 | 0.00 | 0.00 | 30 | 1019.0 |
| 20260501171220 | 58 | 305 | 3.5 | 4.3 | 0.00 | 0.00 | 0.00 | 29 | 1019.0 |
| 20260501170722 | 58 | 295 | 4.3 | 6.1 | 0.00 | 0.00 | 0.00 | 29 | 1019.0 |
| 20260501170220 | 58 | 68 | 1.7 | 2.6 | 0.00 | 0.00 | 0.00 | 31 | 1019.0 |
| 20260501165721 | 58 | 58 | 0.9 | 2.6 | 0.00 | 0.00 | 0.00 | 29 | 1019.0 |
| 20260501165221 | 58 | 356 | 3.5 | 5.2 | 0.00 | 0.00 | 0.00 | 30 | 1019.0 |
| 20260501164720 | 58 | 18 | 0.0 | 1.7 | 0.00 | 0.00 | 0.00 | 33 | 1019.0 |
| 20260501164221 | 58 | 256 | 0.9 | 2.6 | 0.00 | 0.00 | 0.00 | 31 | 1019.0 |
| 20260501163721 | 58 | 265 | 0.9 | 2.6 | 0.00 | 0.00 | 0.00 | 32 | 1019.0 |
| 20260501163221 | 58 | 21 | 2.6 | 3.5 | 0.00 | 0.00 | 0.00 | 33 | 1019.0 |
| 20260501162720 | 58 | 127 | 2.6 | 3.5 | 0.00 | 0.00 | 0.00 | 31 | 1019.0 |
| 20260501162221 | 57 | 4 | 0.0 | 0.9 | 0.00 | 0.00 | 0.00 | 34 | 1019.0 |
| 20260501161720 | 57 | 259 | 2.6 | 3.5 | 0.00 | 0.00 | 0.00 | 34 | 1019.0 |
| 20260501161221 | 57 | 82 | 1.7 | 3.5 | 0.00 | 0.00 | 0.00 | 35 | 1019.0 |
| 20260501160722 | 57 | 351 | 0.9 | 1.7 | 0.00 | 0.00 | 0.00 | 36 | 1019.0 |
| 20260501160220 | 56 | 150 | 0.9 | 1.7 | 0.00 | 0.00 | 0.00 | 36 | 1019.0 |
| 20260501155721 | 56 | 18 | 0.9 | 1.7 | 0.00 | 0.00 | 0.00 | 37 | 1019.0 |
| 20260501155220 | 56 | 358 | 0.9 | 1.7 | 0.00 | 0.00 | 0.00 | 37 | 1019.0 |
| 20260501154721 | 55 | 352 | 2.6 | 3.5 | 0.00 | 0.00 | 0.00 | 38 | 1019.0 |
| 20260501154222 | 55 | 73 | 0.9 | 4.3 | 0.00 | 0.00 | 0.00 | 40 | 1019.0 |
| 20260501153720 | 54 | 8 | 2.6 | 3.5 | 0.00 | 0.00 | 0.00 | 40 | 1019.0 |
| 20260501153220 | 54 | 10 | 1.7 | 3.5 | 0.00 | 0.00 | 0.00 | 40 | 1019.0 |
| 20260501152720 | 54 | 54 | 1.7 | 2.6 | 0.00 | 0.00 | 0.00 | 41 | 1019.0 |
| 20260501152222 | 54 | 40 | 1.7 | 3.5 | 0.00 | 0.00 | 0.00 | 41 | 1019.0 |
| 20260501151720 | 55 | 40 | 2.6 | 3.5 | 0.00 | 0.00 | 0.00 | 41 | 1019.0 |
| 20260501151220 | 55 | 62 | 0.0 | 1.7 | 0.00 | 0.00 | 0.00 | 40 | 1019.0 |
| 20260501150721 | 54 | 213 | 0.9 | 1.7 | 0.00 | 0.00 | 0.00 | 41 | 1019.0 |